Year,Month,Day,Hour,Minute,Value (Times are PST for temperature in C)
2016,08,19,00,00,19.60
2016,08,19,00,01,19.60
2016,08,19,00,02,19.60
2016,08,19,00,03,19.60
2016,08,19,00,04,19.60
2016,08,19,00,05,19.70
2016,08,19,00,06,19.80
2016,08,19,00,07,19.90
2016,08,19,00,08,19.90
2016,08,19,00,09,20.00
2016,08,19,00,10,20.10
2016,08,19,00,11,20.20
2016,08,19,00,12,20.20
2016,08,19,00,13,20.30
2016,08,19,00,14,20.50
2016,08,19,00,15,20.70
2016,08,19,00,16,20.90
2016,08,19,00,17,21.10
2016,08,19,00,18,21.20
2016,08,19,00,19,21.30
2016,08,19,00,20,21.40
2016,08,19,00,21,21.50
2016,08,19,00,22,21.60
2016,08,19,00,23,21.70
2016,08,19,00,24,21.80
2016,08,19,00,25,22.00
2016,08,19,00,26,22.20
2016,08,19,00,27,22.30
2016,08,19,00,28,22.40
2016,08,19,00,29,22.60
2016,08,19,00,30,22.80
2016,08,19,00,31,22.90
2016,08,19,00,32,23.00
2016,08,19,00,33,23.20
2016,08,19,00,34,23.30
2016,08,19,00,35,23.30
2016,08,19,00,36,23.40
2016,08,19,00,37,23.40
2016,08,19,00,38,23.40
2016,08,19,00,39,23.40
2016,08,19,00,40,23.40
2016,08,19,00,41,23.40
2016,08,19,00,42,23.40
2016,08,19,00,43,23.40
2016,08,19,00,44,23.40
2016,08,19,00,45,23.40
2016,08,19,00,46,23.40
2016,08,19,00,47,23.50
2016,08,19,00,48,23.60
2016,08,19,00,49,23.70
2016,08,19,00,50,23.70
2016,08,19,00,51,23.70
2016,08,19,00,52,23.80
2016,08,19,00,53,23.80
2016,08,19,00,54,23.80
2016,08,19,00,55,23.90
2016,08,19,00,56,23.90
2016,08,19,00,57,23.90
2016,08,19,00,58,23.90
2016,08,19,00,59,23.80
2016,08,19,01,00,23.80
2016,08,19,01,01,23.70
2016,08,19,01,02,23.70
2016,08,19,01,03,23.70
2016,08,19,01,04,23.70
2016,08,19,01,05,23.70
2016,08,19,01,06,23.70
2016,08,19,01,07,23.60
2016,08,19,01,08,23.60
2016,08,19,01,09,23.40
2016,08,19,01,10,23.40
2016,08,19,01,11,23.30
2016,08,19,01,12,23.30
2016,08,19,01,13,23.30
2016,08,19,01,14,23.20
2016,08,19,01,15,23.20
2016,08,19,01,16,23.20
2016,08,19,01,17,23.10
2016,08,19,01,18,23.10
2016,08,19,01,19,23.10
2016,08,19,01,20,23.00
2016,08,19,01,21,22.90
2016,08,19,01,22,22.90
2016,08,19,01,23,22.90
2016,08,19,01,24,22.90
2016,08,19,01,25,22.80
2016,08,19,01,26,22.80
2016,08,19,01,27,22.80
2016,08,19,01,28,22.80
2016,08,19,01,29,22.80
2016,08,19,01,30,22.80
2016,08,19,01,31,22.80
2016,08,19,01,32,22.80
2016,08,19,01,33,22.80
2016,08,19,01,34,22.80
2016,08,19,01,35,22.80
2016,08,19,01,36,22.80
2016,08,19,01,37,22.80
2016,08,19,01,38,22.80
2016,08,19,01,39,22.80
2016,08,19,01,40,22.90
2016,08,19,01,41,22.90
2016,08,19,01,42,22.90
2016,08,19,01,43,22.90
2016,08,19,01,44,22.90
2016,08,19,01,45,22.90
2016,08,19,01,46,22.90
2016,08,19,01,47,22.90
2016,08,19,01,48,22.90
2016,08,19,01,49,22.90
2016,08,19,01,50,22.80
2016,08,19,01,51,22.80
2016,08,19,01,52,22.70
2016,08,19,01,53,22.70
2016,08,19,01,54,22.70
2016,08,19,01,55,22.60
2016,08,19,01,56,22.60
2016,08,19,01,57,22.60
2016,08,19,01,58,22.50
2016,08,19,01,59,22.50
2016,08,19,02,00,22.40
2016,08,19,02,01,22.40
2016,08,19,02,02,22.40
2016,08,19,02,03,22.40
2016,08,19,02,04,22.30
2016,08,19,02,05,22.30
2016,08,19,02,06,22.30
2016,08,19,02,07,22.30
2016,08,19,02,08,22.30
2016,08,19,02,09,22.20
2016,08,19,02,10,22.20
2016,08,19,02,11,22.20
2016,08,19,02,12,22.20
2016,08,19,02,13,22.20
2016,08,19,02,14,22.20
2016,08,19,02,15,22.20
2016,08,19,02,16,22.20
2016,08,19,02,17,22.20
2016,08,19,02,18,22.20
2016,08,19,02,19,22.20
2016,08,19,02,20,22.20
2016,08,19,02,21,22.20
2016,08,19,02,22,22.20
2016,08,19,02,23,22.20
2016,08,19,02,24,22.20
2016,08,19,02,25,22.20
2016,08,19,02,26,22.20
2016,08,19,02,27,22.20
2016,08,19,02,28,22.20
2016,08,19,02,29,22.20
2016,08,19,02,30,22.20
2016,08,19,02,31,22.20
2016,08,19,02,32,22.20
2016,08,19,02,33,22.20
2016,08,19,02,34,22.20
2016,08,19,02,35,22.10
2016,08,19,02,36,22.10
2016,08,19,02,37,22.10
2016,08,19,02,38,22.10
2016,08,19,02,39,22.00
2016,08,19,02,40,22.00
2016,08,19,02,41,22.00
2016,08,19,02,42,22.00
2016,08,19,02,43,21.90
2016,08,19,02,44,21.90
2016,08,19,02,45,21.90
2016,08,19,02,46,21.80
2016,08,19,02,47,21.80
2016,08,19,02,48,21.80
2016,08,19,02,49,21.80
2016,08,19,02,50,21.70
2016,08,19,02,51,21.70
2016,08,19,02,52,21.60
2016,08,19,02,53,21.60
2016,08,19,02,54,21.50
2016,08,19,02,55,21.40
2016,08,19,02,56,21.30
2016,08,19,02,57,21.30
2016,08,19,02,58,21.20
2016,08,19,02,59,21.20
2016,08,19,03,00,21.10
2016,08,19,03,01,21.10
2016,08,19,03,02,21.10
2016,08,19,03,03,21.00
2016,08,19,03,04,21.00
2016,08,19,03,05,20.90
2016,08,19,03,06,20.90
2016,08,19,03,07,20.80
2016,08,19,03,08,20.80
2016,08,19,03,09,20.80
2016,08,19,03,10,20.80
2016,08,19,03,11,20.80
2016,08,19,03,12,20.80
2016,08,19,03,13,20.80
2016,08,19,03,14,20.80
2016,08,19,03,15,20.80
2016,08,19,03,16,20.90
2016,08,19,03,17,20.90
2016,08,19,03,18,20.90
2016,08,19,03,19,20.80
2016,08,19,03,20,20.80
2016,08,19,03,21,20.80
2016,08,19,03,22,20.80
2016,08,19,03,23,20.80
2016,08,19,03,24,20.70
2016,08,19,03,25,20.70
2016,08,19,03,26,20.70
2016,08,19,03,27,20.70
2016,08,19,03,28,20.70
2016,08,19,03,29,20.70
2016,08,19,03,30,20.70
2016,08,19,03,31,20.70
2016,08,19,03,32,20.70
2016,08,19,03,33,20.70
2016,08,19,03,34,20.60
2016,08,19,03,35,20.60
2016,08,19,03,36,20.60
2016,08,19,03,37,20.50
2016,08,19,03,38,20.50
2016,08,19,03,39,20.50
2016,08,19,03,40,20.40
2016,08,19,03,41,20.40
2016,08,19,03,42,20.40
2016,08,19,03,43,20.40
2016,08,19,03,44,20.50
2016,08,19,03,45,20.50
2016,08,19,03,46,20.50
2016,08,19,03,47,20.50
2016,08,19,03,48,20.40
2016,08,19,03,49,20.40
2016,08,19,03,50,20.40
2016,08,19,03,51,20.40
2016,08,19,03,52,20.40
2016,08,19,03,53,20.40
2016,08,19,03,54,20.40
2016,08,19,03,55,20.30
2016,08,19,03,56,20.30
2016,08,19,03,57,20.30
2016,08,19,03,58,20.30
2016,08,19,03,59,20.30
2016,08,19,04,00,20.30
2016,08,19,04,01,20.30
2016,08,19,04,02,20.30
2016,08,19,04,03,20.30
2016,08,19,04,04,20.20
2016,08,19,04,05,20.20
2016,08,19,04,06,20.20
2016,08,19,04,07,20.20
2016,08,19,04,08,20.20
2016,08,19,04,09,20.20
2016,08,19,04,10,20.20
2016,08,19,04,11,20.10
2016,08,19,04,12,20.10
2016,08,19,04,13,20.00
2016,08,19,04,14,19.90
2016,08,19,04,15,19.90
2016,08,19,04,16,19.90
2016,08,19,04,17,19.90
2016,08,19,04,18,19.90
2016,08,19,04,19,19.80
2016,08,19,04,20,19.80
2016,08,19,04,21,19.80
2016,08,19,04,22,19.80
2016,08,19,04,23,19.80
2016,08,19,04,24,19.80
2016,08,19,04,25,19.70
2016,08,19,04,26,19.70
2016,08,19,04,27,19.70
2016,08,19,04,28,19.70
2016,08,19,04,29,19.70
2016,08,19,04,30,19.70
2016,08,19,04,31,19.60
2016,08,19,04,32,19.60
2016,08,19,04,33,19.60
2016,08,19,04,34,19.60
2016,08,19,04,35,19.50
2016,08,19,04,36,19.50
2016,08,19,04,37,19.40
2016,08,19,04,38,19.40
2016,08,19,04,39,19.40
2016,08,19,04,40,19.30
2016,08,19,04,41,19.30
2016,08,19,04,42,19.20
2016,08,19,04,43,19.20
2016,08,19,04,44,19.10
2016,08,19,04,45,19.10
2016,08,19,04,46,19.10
2016,08,19,04,47,19.10
2016,08,19,04,48,19.10
2016,08,19,04,49,19.10
2016,08,19,04,50,19.10
2016,08,19,04,51,19.00
2016,08,19,04,52,18.90
2016,08,19,04,53,18.90
2016,08,19,04,54,18.90
2016,08,19,04,55,18.90
2016,08,19,04,56,18.90
2016,08,19,04,57,18.90
2016,08,19,04,58,18.90
2016,08,19,04,59,18.90
2016,08,19,05,00,18.90
2016,08,19,05,01,18.80
2016,08,19,05,02,18.80
2016,08,19,05,03,18.80
2016,08,19,05,04,18.80
2016,08,19,05,05,18.80
2016,08,19,05,06,18.80
2016,08,19,05,07,18.70
2016,08,19,05,08,18.70
2016,08,19,05,09,18.70
2016,08,19,05,10,18.70
2016,08,19,05,11,18.70
2016,08,19,05,12,18.70
2016,08,19,05,13,18.60
2016,08,19,05,14,18.60
2016,08,19,05,15,18.60
2016,08,19,05,16,18.60
2016,08,19,05,17,18.60
2016,08,19,05,18,18.60
2016,08,19,05,19,18.60
2016,08,19,05,20,18.60
2016,08,19,05,21,18.60
2016,08,19,05,22,18.60
2016,08,19,05,23,18.60
2016,08,19,05,24,18.60
2016,08,19,05,25,18.60
2016,08,19,05,26,18.60
2016,08,19,05,27,18.60
2016,08,19,05,28,18.60
2016,08,19,05,29,18.60
2016,08,19,05,30,18.60
2016,08,19,05,31,18.70
2016,08,19,05,32,18.70
2016,08,19,05,33,18.70
2016,08,19,05,34,18.70
2016,08,19,05,35,18.70
2016,08,19,05,36,18.70
2016,08,19,05,37,18.70
2016,08,19,05,38,18.70
2016,08,19,05,39,18.70
2016,08,19,05,40,18.70
2016,08,19,05,41,18.60
2016,08,19,05,42,18.60
2016,08,19,05,43,18.60
2016,08,19,05,44,18.50
2016,08,19,05,45,18.50
2016,08,19,05,46,18.40
2016,08,19,05,47,18.40
2016,08,19,05,48,18.40
2016,08,19,05,49,18.30
2016,08,19,05,50,18.30
2016,08,19,05,51,18.30
2016,08,19,05,52,18.30
2016,08,19,05,53,18.20
2016,08,19,05,54,18.20
2016,08,19,05,55,18.20
2016,08,19,05,56,18.20
2016,08,19,05,57,18.10
2016,08,19,05,58,18.10
2016,08,19,05,59,18.10
2016,08,19,06,00,18.10
2016,08,19,06,01,18.10
2016,08,19,06,02,18.10
2016,08,19,06,03,18.10
2016,08,19,06,04,18.20
2016,08,19,06,05,18.20
2016,08,19,06,06,18.20
2016,08,19,06,07,18.20
2016,08,19,06,08,18.30
2016,08,19,06,09,18.30
2016,08,19,06,10,18.30
2016,08,19,06,11,18.40
2016,08,19,06,12,18.40
2016,08,19,06,13,18.40
2016,08,19,06,14,18.50
2016,08,19,06,15,18.50
2016,08,19,06,16,18.50
2016,08,19,06,17,18.50
2016,08,19,06,18,18.50
2016,08,19,06,19,18.60
2016,08,19,06,20,18.60
2016,08,19,06,21,18.70
2016,08,19,06,22,18.70
2016,08,19,06,23,18.70
2016,08,19,06,24,18.70
2016,08,19,06,25,18.70
2016,08,19,06,26,18.70
2016,08,19,06,27,18.70
2016,08,19,06,28,18.70
2016,08,19,06,29,18.70
2016,08,19,06,30,18.80
2016,08,19,06,31,18.80
2016,08,19,06,32,18.90
2016,08,19,06,33,18.90
2016,08,19,06,34,18.90
2016,08,19,06,35,18.90
2016,08,19,06,36,18.90
2016,08,19,06,37,19.00
2016,08,19,06,38,19.10
2016,08,19,06,39,19.10
2016,08,19,06,40,19.10
2016,08,19,06,41,19.10
2016,08,19,06,42,19.10
2016,08,19,06,43,19.10
2016,08,19,06,44,19.10
2016,08,19,06,45,19.10
2016,08,19,06,46,19.20
2016,08,19,06,47,19.20
2016,08,19,06,48,19.20
2016,08,19,06,49,19.20
2016,08,19,06,50,19.20
2016,08,19,06,51,19.20
2016,08,19,06,52,19.20
2016,08,19,06,53,19.20
2016,08,19,06,54,19.20
2016,08,19,06,55,19.10
2016,08,19,06,56,19.10
2016,08,19,06,57,19.10
2016,08,19,06,58,19.10
2016,08,19,06,59,19.10
2016,08,19,07,00,19.10
2016,08,19,07,01,19.20
2016,08,19,07,02,19.20
2016,08,19,07,03,19.20
2016,08,19,07,04,19.30
2016,08,19,07,05,19.30
2016,08,19,07,06,19.40
2016,08,19,07,07,19.40
2016,08,19,07,08,19.50
2016,08,19,07,09,19.50
2016,08,19,07,10,19.60
2016,08,19,07,11,19.70
2016,08,19,07,12,19.70
2016,08,19,07,13,19.70
2016,08,19,07,14,19.80
2016,08,19,07,15,19.80
2016,08,19,07,16,19.80
2016,08,19,07,17,19.80
2016,08,19,07,18,19.80
2016,08,19,07,19,19.80
2016,08,19,07,20,19.80
2016,08,19,07,21,19.80
2016,08,19,07,22,19.80
2016,08,19,07,23,19.80
2016,08,19,07,24,19.80
2016,08,19,07,25,19.90
2016,08,19,07,26,19.90
2016,08,19,07,27,19.90
2016,08,19,07,28,19.90
2016,08,19,07,29,19.90
2016,08,19,07,30,20.00
2016,08,19,07,31,20.10
2016,08,19,07,32,20.10
2016,08,19,07,33,20.20
2016,08,19,07,34,20.20
2016,08,19,07,35,20.30
2016,08,19,07,36,20.30
2016,08,19,07,37,20.40
2016,08,19,07,38,20.50
2016,08,19,07,39,20.50
2016,08,19,07,40,20.60
2016,08,19,07,41,20.60
2016,08,19,07,42,20.70
2016,08,19,07,43,20.80
2016,08,19,07,44,20.80
2016,08,19,07,45,20.90
2016,08,19,07,46,21.00
2016,08,19,07,47,21.00
2016,08,19,07,48,21.10
2016,08,19,07,49,21.20
2016,08,19,07,50,21.30
2016,08,19,07,51,21.40
2016,08,19,07,52,21.50
2016,08,19,07,53,21.60
2016,08,19,07,54,21.60
2016,08,19,07,55,21.70
2016,08,19,07,56,21.70
2016,08,19,07,57,21.70
2016,08,19,07,58,21.80
2016,08,19,07,59,21.80
2016,08,19,08,00,21.90
2016,08,19,08,01,21.90
2016,08,19,08,02,22.00
2016,08,19,08,03,22.00
2016,08,19,08,04,22.10
2016,08,19,08,05,22.10
2016,08,19,08,06,22.10
2016,08,19,08,07,22.20
2016,08,19,08,08,22.20
2016,08,19,08,09,22.30
2016,08,19,08,10,22.30
2016,08,19,08,11,22.30
2016,08,19,08,12,22.30
2016,08,19,08,13,22.40
2016,08,19,08,14,22.40
2016,08,19,08,15,22.40
2016,08,19,08,16,22.50
2016,08,19,08,17,22.50
2016,08,19,08,18,22.50
2016,08,19,08,19,22.60
2016,08,19,08,20,22.60
2016,08,19,08,21,22.70
2016,08,19,08,22,22.70
2016,08,19,08,23,22.80
2016,08,19,08,24,22.80
2016,08,19,08,25,22.90
2016,08,19,08,26,22.90
2016,08,19,08,27,22.90
2016,08,19,08,28,22.90
2016,08,19,08,29,23.00
2016,08,19,08,30,23.10
2016,08,19,08,31,23.10
2016,08,19,08,32,23.20
2016,08,19,08,33,23.20
2016,08,19,08,34,23.20
2016,08,19,08,35,23.30
2016,08,19,08,36,23.30
2016,08,19,08,37,23.30
2016,08,19,08,38,23.30
2016,08,19,08,39,23.30
2016,08,19,08,40,23.30
2016,08,19,08,41,23.40
2016,08,19,08,42,23.40
2016,08,19,08,43,23.60
2016,08,19,08,44,23.60
2016,08,19,08,45,23.60
2016,08,19,08,46,23.60
2016,08,19,08,47,23.70
2016,08,19,08,48,23.70
2016,08,19,08,49,23.70
2016,08,19,08,50,23.70
2016,08,19,08,51,23.70
2016,08,19,08,52,23.70
2016,08,19,08,53,23.70
2016,08,19,08,54,23.80
2016,08,19,08,55,23.80
2016,08,19,08,56,23.80
2016,08,19,08,57,23.80
2016,08,19,08,58,23.80
2016,08,19,08,59,23.90
2016,08,19,09,00,23.90
2016,08,19,09,01,23.90
2016,08,19,09,02,23.90
2016,08,19,09,03,23.90
2016,08,19,09,04,23.90
2016,08,19,09,05,23.90
2016,08,19,09,06,24.00
2016,08,19,09,07,24.10
2016,08,19,09,08,24.10
2016,08,19,09,09,24.10
2016,08,19,09,10,24.10
2016,08,19,09,11,24.10
2016,08,19,09,12,24.10
2016,08,19,09,13,24.20
2016,08,19,09,14,24.20
2016,08,19,09,15,24.20
2016,08,19,09,16,24.20
2016,08,19,09,17,24.30
2016,08,19,09,18,24.30
2016,08,19,09,19,24.30
2016,08,19,09,20,24.30
2016,08,19,09,21,24.40
2016,08,19,09,22,24.40
2016,08,19,09,23,24.40
2016,08,19,09,24,24.40
2016,08,19,09,25,24.40
2016,08,19,09,26,24.40
2016,08,19,09,27,24.50
2016,08,19,09,28,24.50
2016,08,19,09,29,24.50
2016,08,19,09,30,24.50
2016,08,19,09,31,24.50
2016,08,19,09,32,24.50
2016,08,19,09,33,24.50
2016,08,19,09,34,24.50
2016,08,19,09,35,24.60
2016,08,19,09,36,24.50
2016,08,19,09,37,24.50
2016,08,19,09,38,24.50
2016,08,19,09,39,24.50
2016,08,19,09,40,24.50
2016,08,19,09,41,24.50
2016,08,19,09,42,24.50
2016,08,19,09,43,24.50
2016,08,19,09,44,24.40
2016,08,19,09,45,24.40
2016,08,19,09,46,24.40
2016,08,19,09,47,24.40
2016,08,19,09,48,24.30
2016,08,19,09,49,24.30
2016,08,19,09,50,24.30
2016,08,19,09,51,24.30
2016,08,19,09,52,24.30
2016,08,19,09,53,24.30
2016,08,19,09,54,24.30
2016,08,19,09,55,24.40
2016,08,19,09,56,24.40
2016,08,19,09,57,24.40
2016,08,19,09,58,24.50
2016,08,19,09,59,24.50
2016,08,19,10,00,24.60
2016,08,19,10,01,24.60
2016,08,19,10,02,24.70
2016,08,19,10,03,24.80
2016,08,19,10,04,24.90
2016,08,19,10,05,25.00
2016,08,19,10,06,25.10
2016,08,19,10,07,25.20
2016,08,19,10,08,25.30
2016,08,19,10,09,25.30
2016,08,19,10,10,25.40
2016,08,19,10,11,25.40
2016,08,19,10,12,25.40
2016,08,19,10,13,25.40
2016,08,19,10,14,25.40
2016,08,19,10,15,25.40
2016,08,19,10,16,25.50
2016,08,19,10,17,25.50
2016,08,19,10,18,25.50
2016,08,19,10,19,25.60
2016,08,19,10,20,25.60
2016,08,19,10,21,25.70
2016,08,19,10,22,25.70
2016,08,19,10,23,25.70
2016,08,19,10,24,25.70
2016,08,19,10,25,25.70
2016,08,19,10,26,25.80
2016,08,19,10,27,25.80
2016,08,19,10,28,25.80
2016,08,19,10,29,25.80
2016,08,19,10,30,25.80
2016,08,19,10,31,25.90
2016,08,19,10,32,25.90
2016,08,19,10,33,25.90
2016,08,19,10,34,25.90
2016,08,19,10,35,26.00
2016,08,19,10,36,26.00
2016,08,19,10,37,26.10
2016,08,19,10,38,26.10
2016,08,19,10,39,26.20
2016,08,19,10,40,26.30
2016,08,19,10,41,26.40
2016,08,19,10,42,26.40
2016,08,19,10,43,26.50
2016,08,19,10,44,26.50
2016,08,19,10,45,26.60
2016,08,19,10,46,26.60
2016,08,19,10,47,26.60
2016,08,19,10,48,26.50
2016,08,19,10,49,26.40
2016,08,19,10,50,26.40
2016,08,19,10,51,26.30
2016,08,19,10,52,26.30
2016,08,19,10,53,26.30
2016,08,19,10,54,26.30
2016,08,19,10,55,26.30
2016,08,19,10,56,26.30
2016,08,19,10,57,26.20
2016,08,19,10,58,26.20
2016,08,19,10,59,26.20
2016,08,19,11,00,26.20
2016,08,19,11,01,26.20
2016,08,19,11,02,26.30
2016,08,19,11,03,26.30
2016,08,19,11,04,26.40
2016,08,19,11,05,26.40
2016,08,19,11,06,26.40
2016,08,19,11,07,26.40
2016,08,19,11,08,26.30
2016,08,19,11,09,26.30
2016,08,19,11,10,26.30
2016,08,19,11,11,26.30
2016,08,19,11,12,26.40
2016,08,19,11,13,26.40
2016,08,19,11,14,26.40
2016,08,19,11,15,26.40
2016,08,19,11,16,26.50
2016,08,19,11,17,26.60
2016,08,19,11,18,26.60
2016,08,19,11,19,26.60
2016,08,19,11,20,26.60
2016,08,19,11,21,26.50
2016,08,19,11,22,26.40
2016,08,19,11,23,26.40
2016,08,19,11,24,26.40
2016,08,19,11,25,26.40
2016,08,19,11,26,26.40
2016,08,19,11,27,26.40
2016,08,19,11,28,26.40
2016,08,19,11,29,26.50
2016,08,19,11,30,26.60
2016,08,19,11,31,26.60
2016,08,19,11,32,26.60
2016,08,19,11,33,26.50
2016,08,19,11,34,26.40
2016,08,19,11,35,26.50
2016,08,19,11,36,26.60
2016,08,19,11,37,26.60
2016,08,19,11,38,26.60
2016,08,19,11,39,26.60
2016,08,19,11,40,26.60
2016,08,19,11,41,26.60
2016,08,19,11,42,26.60
2016,08,19,11,43,26.60
2016,08,19,11,44,26.60
2016,08,19,11,45,26.70
2016,08,19,11,46,26.70
2016,08,19,11,47,26.80
2016,08,19,11,48,26.80
2016,08,19,11,49,26.80
2016,08,19,11,50,26.80
2016,08,19,11,51,26.80
2016,08,19,11,52,26.80
2016,08,19,11,53,26.80
2016,08,19,11,54,26.80
2016,08,19,11,55,26.80
2016,08,19,11,56,26.90
2016,08,19,11,57,26.90
2016,08,19,11,58,26.90
2016,08,19,11,59,26.90
2016,08,19,12,00,26.90
2016,08,19,12,01,26.90
2016,08,19,12,02,26.90
2016,08,19,12,03,27.00
2016,08,19,12,04,27.00
2016,08,19,12,05,27.00
2016,08,19,12,06,27.10
2016,08,19,12,07,27.10
2016,08,19,12,08,27.10
2016,08,19,12,09,27.20
2016,08,19,12,10,27.30
2016,08,19,12,11,27.30
2016,08,19,12,12,27.20
2016,08,19,12,13,27.20
2016,08,19,12,14,27.20
2016,08,19,12,15,27.20
2016,08,19,12,16,27.20
2016,08,19,12,17,27.20
2016,08,19,12,18,27.20
2016,08,19,12,19,27.20
2016,08,19,12,20,27.20
2016,08,19,12,21,27.20
2016,08,19,12,22,27.20
2016,08,19,12,23,27.30
2016,08,19,12,24,27.30
2016,08,19,12,25,27.40
2016,08,19,12,26,27.40
2016,08,19,12,27,27.40
2016,08,19,12,28,27.40
2016,08,19,12,29,27.40
2016,08,19,12,30,27.40
2016,08,19,12,31,27.50
2016,08,19,12,32,27.60
2016,08,19,12,33,27.60
2016,08,19,12,34,27.60
2016,08,19,12,35,27.70
2016,08,19,12,36,27.60
2016,08,19,12,37,27.60
2016,08,19,12,38,27.60
2016,08,19,12,39,27.60
2016,08,19,12,40,27.60
2016,08,19,12,41,27.70
2016,08,19,12,42,27.70
2016,08,19,12,43,27.80
2016,08,19,12,44,27.80
2016,08,19,12,45,27.90
2016,08,19,12,46,27.90
2016,08,19,12,47,28.00
2016,08,19,12,48,28.00
2016,08,19,12,49,28.10
2016,08,19,12,50,28.10
2016,08,19,12,51,28.10
2016,08,19,12,52,28.10
2016,08,19,12,53,28.10
2016,08,19,12,54,28.10
2016,08,19,12,55,28.20
2016,08,19,12,56,28.20
2016,08,19,12,57,28.20
2016,08,19,12,58,28.20
2016,08,19,12,59,28.20
2016,08,19,13,00,28.20
2016,08,19,13,01,28.20
2016,08,19,13,02,28.10
2016,08,19,13,03,28.10
2016,08,19,13,04,28.20
2016,08,19,13,05,28.20
2016,08,19,13,06,28.20
2016,08,19,13,07,28.20
2016,08,19,13,08,28.20
2016,08,19,13,09,28.30
2016,08,19,13,10,28.30
2016,08,19,13,11,28.40
2016,08,19,13,12,28.40
2016,08,19,13,13,28.60
2016,08,19,13,14,28.60
2016,08,19,13,15,28.70
2016,08,19,13,16,28.80
2016,08,19,13,17,28.90
2016,08,19,13,18,28.90
2016,08,19,13,19,28.90
2016,08,19,13,20,28.90
2016,08,19,13,21,28.90
2016,08,19,13,22,28.90
2016,08,19,13,23,28.90
2016,08,19,13,24,28.90
2016,08,19,13,25,28.90
2016,08,19,13,26,29.00
2016,08,19,13,27,29.10
2016,08,19,13,28,29.10
2016,08,19,13,29,29.00
2016,08,19,13,30,28.90
2016,08,19,13,31,28.90
2016,08,19,13,32,28.90
2016,08,19,13,33,28.90
2016,08,19,13,34,28.90
2016,08,19,13,35,28.90
2016,08,19,13,36,28.90
2016,08,19,13,37,29.10
2016,08,19,13,38,29.10
2016,08,19,13,39,29.10
2016,08,19,13,40,29.10
2016,08,19,13,41,29.20
2016,08,19,13,42,29.20
2016,08,19,13,43,29.30
2016,08,19,13,44,29.30
2016,08,19,13,45,29.40
2016,08,19,13,46,29.40
2016,08,19,13,47,29.50
2016,08,19,13,48,29.50
2016,08,19,13,49,29.50
2016,08,19,13,50,29.50
2016,08,19,13,51,29.50
2016,08,19,13,52,29.50
2016,08,19,13,53,29.60
2016,08,19,13,54,29.60
2016,08,19,13,55,29.70
2016,08,19,13,56,29.70
2016,08,19,13,57,29.70
2016,08,19,13,58,29.70
2016,08,19,13,59,29.80
2016,08,19,14,00,29.80
2016,08,19,14,01,29.90
2016,08,19,14,02,29.90
2016,08,19,14,03,30.10
2016,08,19,14,04,30.10
2016,08,19,14,05,30.20
2016,08,19,14,06,30.20
2016,08,19,14,07,30.20
2016,08,19,14,08,30.20
2016,08,19,14,09,30.20
2016,08,19,14,10,30.20
2016,08,19,14,11,30.20
2016,08,19,14,12,30.20
2016,08,19,14,13,30.30
2016,08,19,14,14,30.30
2016,08,19,14,15,30.30
2016,08,19,14,16,30.40
2016,08,19,14,17,30.50
2016,08,19,14,18,30.60
2016,08,19,14,19,30.60
2016,08,19,14,20,30.60
2016,08,19,14,21,30.60
2016,08,19,14,22,30.60
2016,08,19,14,23,30.60
2016,08,19,14,24,30.40
2016,08,19,14,25,30.30
2016,08,19,14,26,30.30
2016,08,19,14,27,30.30
2016,08,19,14,28,30.30
2016,08,19,14,29,30.30
2016,08,19,14,30,30.40
2016,08,19,14,31,30.50
2016,08,19,14,32,30.60
2016,08,19,14,33,30.60
2016,08,19,14,34,30.60
2016,08,19,14,35,30.60
2016,08,19,14,36,30.70
2016,08,19,14,37,30.70
2016,08,19,14,38,30.70
2016,08,19,14,39,30.70
2016,08,19,14,40,30.70
2016,08,19,14,41,30.70
2016,08,19,14,42,30.70
2016,08,19,14,43,30.70
2016,08,19,14,44,30.70
2016,08,19,14,45,30.70
2016,08,19,14,46,30.70
2016,08,19,14,47,30.70
2016,08,19,14,48,30.70
2016,08,19,14,49,30.70
2016,08,19,14,50,30.60
2016,08,19,14,51,30.60
2016,08,19,14,52,30.60
2016,08,19,14,53,30.70
2016,08,19,14,54,30.70
2016,08,19,14,55,30.70
2016,08,19,14,56,30.80
2016,08,19,14,57,30.80
2016,08,19,14,58,30.80
2016,08,19,14,59,30.90
2016,08,19,15,00,30.90
2016,08,19,15,01,30.90
2016,08,19,15,02,31.00
2016,08,19,15,03,31.00
2016,08,19,15,04,31.10
2016,08,19,15,05,31.20
2016,08,19,15,06,31.30
2016,08,19,15,07,31.30
2016,08,19,15,08,31.40
2016,08,19,15,09,31.50
2016,08,19,15,10,31.60
2016,08,19,15,11,31.60
2016,08,19,15,12,31.60
2016,08,19,15,13,31.60
2016,08,19,15,14,31.60
2016,08,19,15,15,31.60
2016,08,19,15,16,31.60
2016,08,19,15,17,31.50
2016,08,19,15,18,31.40
2016,08,19,15,19,31.40
2016,08,19,15,20,31.40
2016,08,19,15,21,31.40
2016,08,19,15,22,31.50
2016,08,19,15,23,31.60
2016,08,19,15,24,31.60
2016,08,19,15,25,31.70
2016,08,19,15,26,31.70
2016,08,19,15,27,31.70
2016,08,19,15,28,31.80
2016,08,19,15,29,31.70
2016,08,19,15,30,31.70
2016,08,19,15,31,31.70
2016,08,19,15,32,31.70
2016,08,19,15,33,31.70
2016,08,19,15,34,31.70
2016,08,19,15,35,31.70
2016,08,19,15,36,31.70
2016,08,19,15,37,31.70
2016,08,19,15,38,31.80
2016,08,19,15,39,31.80
2016,08,19,15,40,31.80
2016,08,19,15,41,31.90
2016,08,19,15,42,31.90
2016,08,19,15,43,32.00
2016,08,19,15,44,32.10
2016,08,19,15,45,32.10
2016,08,19,15,46,32.20
2016,08,19,15,47,32.20
2016,08,19,15,48,32.30
2016,08,19,15,49,32.40
2016,08,19,15,50,32.40
2016,08,19,15,51,32.50
2016,08,19,15,52,32.50
2016,08,19,15,53,32.50
2016,08,19,15,54,32.50
2016,08,19,15,55,32.60
2016,08,19,15,56,32.60
2016,08,19,15,57,32.60
2016,08,19,15,58,32.60
2016,08,19,15,59,32.60
2016,08,19,16,00,32.60
2016,08,19,16,01,32.50
2016,08,19,16,02,32.40
2016,08,19,16,03,32.40
2016,08,19,16,04,32.30
2016,08,19,16,05,32.20
2016,08,19,16,06,32.20
2016,08,19,16,07,32.20
2016,08,19,16,08,32.20
2016,08,19,16,09,32.20
2016,08,19,16,10,32.20
2016,08,19,16,11,32.30
2016,08,19,16,12,32.30
2016,08,19,16,13,32.30
2016,08,19,16,14,32.30
2016,08,19,16,15,32.30
2016,08,19,16,16,32.30
2016,08,19,16,17,32.30
2016,08,19,16,18,32.30
2016,08,19,16,19,32.30
2016,08,19,16,20,32.30
2016,08,19,16,21,32.30
2016,08,19,16,22,32.40
2016,08,19,16,23,32.40
2016,08,19,16,24,32.40
2016,08,19,16,25,32.40
2016,08,19,16,26,32.50
2016,08,19,16,27,32.50
2016,08,19,16,28,32.50
2016,08,19,16,29,32.50
2016,08,19,16,30,32.40
2016,08,19,16,31,32.40
2016,08,19,16,32,32.40
2016,08,19,16,33,32.40
2016,08,19,16,34,32.30
2016,08,19,16,35,32.30
2016,08,19,16,36,32.30
2016,08,19,16,37,32.30
2016,08,19,16,38,32.30
2016,08,19,16,39,32.30
2016,08,19,16,40,32.30
2016,08,19,16,41,32.30
2016,08,19,16,42,32.30
2016,08,19,16,43,32.30
2016,08,19,16,44,32.30
2016,08,19,16,45,32.30
2016,08,19,16,46,32.30
2016,08,19,16,47,32.20
2016,08,19,16,48,32.20
2016,08,19,16,49,32.20
2016,08,19,16,50,32.20
2016,08,19,16,51,32.30
2016,08,19,16,52,32.30
2016,08,19,16,53,32.30
2016,08,19,16,54,32.40
2016,08,19,16,55,32.40
2016,08,19,16,56,32.40
2016,08,19,16,57,32.40
2016,08,19,16,58,32.40
2016,08,19,16,59,32.40
2016,08,19,17,00,32.30
2016,08,19,17,01,32.30
2016,08,19,17,02,32.20
2016,08,19,17,03,32.20
2016,08,19,17,04,32.20
2016,08,19,17,05,32.20
2016,08,19,17,06,32.20
2016,08,19,17,07,32.20
2016,08,19,17,08,32.20
2016,08,19,17,09,32.20
2016,08,19,17,10,32.20
2016,08,19,17,11,32.20
2016,08,19,17,12,32.20
2016,08,19,17,13,32.20
2016,08,19,17,14,32.20
2016,08,19,17,15,32.20
2016,08,19,17,16,32.20
2016,08,19,17,17,32.20
2016,08,19,17,18,32.20
2016,08,19,17,19,32.20